Llica d'Amunt, Spain
Current Conditions -  °F | °C
As of 4:00 PM on Thursday 23 Oct 2014 (Local Time) from LELL Reporting Station
Clear Clear  
Wind Chill: 73°   Ceiling: Unl
Heat Index: 73°   Visibility: 6mi
Dew Point: 50°   Wind: 6mph
Humidity: 44%   Direction: 90°E
Pressure: 30"   Gusts: NA
Location:  41.62°N, 2.23°E
Report Text: LELL 231400Z 09005KT CAVOK 23/10 Q1016
Loading
Personal Weather Stations






























Interactive Weather Map
Tropical Storm Tracking
New forecast layout! Learn more

10-Day Weather Forecast

Advertisements
Track Severe Weather on mobile